Estación de Algarrobo Bajo INIA
Ultimos registro cada 15 minutos 41
| N° | Estación | Fecha / Hora | Temperatura | Humedad | Lluvia | Velocidad | Dirección | Radiación | Presion |
| 41 | Algarrobo Bajo INIA | 09-05-2026 10:00 | 9,9 | 70,5 | 0 | 0,9 | 173 | 336 | 0 |
| 40 | Algarrobo Bajo INIA | 09-05-2026 09:45 | 8,9 | 73,6 | 0 | 0,4 | 195 | 140 | 0 |
| 39 | Algarrobo Bajo INIA | 09-05-2026 09:30 | 8,1 | 76,1 | 0 | 0,1 | 268 | 113 | 0 |
| 38 | Algarrobo Bajo INIA | 09-05-2026 09:15 | 7,4 | 78,3 | 0 | 0,2 | 233 | 124 | 0 |
| 37 | Algarrobo Bajo INIA | 09-05-2026 09:00 | 7,1 | 81 | 0 | 0,4 | 192 | 128 | 0 |
| 36 | Algarrobo Bajo INIA | 09-05-2026 08:45 | 6,3 | 85,4 | 0 | 0,3 | 117 | 113 | 0 |
| 35 | Algarrobo Bajo INIA | 09-05-2026 08:30 | 5,5 | 88 | 0 | 0,6 | 62 | 79 | 0 |
| 34 | Algarrobo Bajo INIA | 09-05-2026 08:15 | 5,7 | 91 | 0 | 0 | 0 | 39 | 0 |
| 33 | Algarrobo Bajo INIA | 09-05-2026 08:00 | 4,9 | 91,9 | 0 | 0 | 268 | 21 | 0 |
| 32 | Algarrobo Bajo INIA | 09-05-2026 07:45 | 3,7 | 92,1 | 0 | 0,2 | 66 | 13 | 0 |
| 31 | Algarrobo Bajo INIA | 09-05-2026 07:30 | 4,4 | 90 | 0 | 0 | 4 | 4 | 0 |
| 30 | Algarrobo Bajo INIA | 09-05-2026 07:15 | 4,2 | 90,4 | 0 | 0,2 | 246 | 1 | 0 |
| 29 | Algarrobo Bajo INIA | 09-05-2026 07:00 | 5,2 | 89,1 | 0 | 0,5 | 202 | 0 | 0 |
| 28 | Algarrobo Bajo INIA | 09-05-2026 06:45 | 7,9 | 86,2 | 0 | 0,6 | 287 | 0 | 0 |
| 27 | Algarrobo Bajo INIA | 09-05-2026 06:30 | 7,9 | 89,4 | 0 | 0,7 | 292 | 0 | 0 |
| 26 | Algarrobo Bajo INIA | 09-05-2026 06:15 | 8 | 89 | 0 | 0,5 | 292 | 0 | 0 |
| 25 | Algarrobo Bajo INIA | 09-05-2026 06:00 | 7,8 | 89,1 | 0 | 0,5 | 303 | 0 | 0 |
| 24 | Algarrobo Bajo INIA | 09-05-2026 05:45 | 8,5 | 87,2 | 0 | 0,6 | 327 | 0 | 0 |
| 23 | Algarrobo Bajo INIA | 09-05-2026 05:30 | 8,2 | 88,3 | 0 | 1,1 | 335 | 0 | 0 |
| 22 | Algarrobo Bajo INIA | 09-05-2026 05:15 | 7,2 | 88,1 | 0 | 1,4 | 331 | 0 | 0 |
| 21 | Algarrobo Bajo INIA | 09-05-2026 05:00 | 4,6 | 91,2 | 0 | 0,6 | 37 | 0 | 0 |
| 20 | Algarrobo Bajo INIA | 09-05-2026 04:45 | 6,9 | 82,7 | 0 | 0,9 | 340 | 0 | 0 |
| 19 | Algarrobo Bajo INIA | 09-05-2026 04:30 | 5,3 | 87,8 | 0 | 0,7 | 342 | 0 | 0 |
| 18 | Algarrobo Bajo INIA | 09-05-2026 04:15 | 4,8 | 82,1 | 0 | 0,8 | 43 | 0 | 0 |
| 17 | Algarrobo Bajo INIA | 09-05-2026 04:00 | 4,2 | 82 | 0 | 1,3 | 38 | 0 | 0 |
| 16 | Algarrobo Bajo INIA | 09-05-2026 03:45 | 3,7 | 84,8 | 0 | 1,3 | 46 | 0 | 0 |
| 15 | Algarrobo Bajo INIA | 09-05-2026 03:30 | 4,9 | 82,6 | 0 | 0,4 | 48 | 0 | 0 |
| 14 | Algarrobo Bajo INIA | 09-05-2026 03:15 | 6,5 | 81,7 | 0 | 0,2 | 316 | 0 | 0 |
| 13 | Algarrobo Bajo INIA | 09-05-2026 03:00 | 5,8 | 80,3 | 0 | 0,7 | 5 | 0 | 0 |
| 12 | Algarrobo Bajo INIA | 09-05-2026 02:45 | 5,9 | 81,5 | 0 | 1 | 47 | 0 | 0 |
| 11 | Algarrobo Bajo INIA | 09-05-2026 02:30 | 6,3 | 83,1 | 0 | 0,5 | 36 | 0 | 0 |
| 10 | Algarrobo Bajo INIA | 09-05-2026 02:15 | 6,4 | 83,9 | 0 | 0,3 | 37 | 0 | 0 |
| 9 | Algarrobo Bajo INIA | 09-05-2026 02:00 | 6,9 | 83,5 | 0 | 0,5 | 31 | 0 | 0 |
| 8 | Algarrobo Bajo INIA | 09-05-2026 01:45 | 7,2 | 82,5 | 0 | 0,4 | 31 | 0 | 0 |
| 7 | Algarrobo Bajo INIA | 09-05-2026 01:30 | 7,4 | 82,6 | 0 | 0,6 | 32 | 0 | 0 |
| 6 | Algarrobo Bajo INIA | 09-05-2026 01:15 | 7,6 | 83 | 0 | 0,3 | 25 | 0 | 0 |
| 5 | Algarrobo Bajo INIA | 09-05-2026 01:00 | 7,9 | 78,4 | 0 | 0,8 | 40 | 0 | 0 |
| 4 | Algarrobo Bajo INIA | 09-05-2026 00:45 | 8 | 78,7 | 0 | 0,6 | 52 | 0 | 0 |
| 3 | Algarrobo Bajo INIA | 09-05-2026 00:30 | 9,1 | 76,8 | 0 | 0 | 310 | 0 | 0 |
| 2 | Algarrobo Bajo INIA | 09-05-2026 00:15 | 8,9 | 76,9 | 0 | 0,2 | 23 | 0 | 0 |
| 1 | Algarrobo Bajo INIA | 09-05-2026 00:00 | 10,4 | 73,2 | 0 | 0,4 | 212 | 0 | 0 |